This is the latest recevied weather packets stored in our database for station/object WX4HP-13. If no packets are shown the sender has not sent any weather packets the latest 1 day(s).
| Time | Temp. | Humidity | Pressure | Rain* | Wind** | Luminosity | Snow |
|---|---|---|---|---|---|---|---|
| 1778045095 | 18.89° C | 72% | 1011.4 hPa | 0 mm | - | - | - |
| 1778044495 | 18.89° C | 71% | 1011.4 hPa | 0 mm | - | - | - |
| 1778044196 | 18.89° C | 71% | 1011.3 hPa | 0 mm | - | - | - |
| 1778043896 | 18.89° C | 71% | 1011.4 hPa | 0 mm | - | - | - |
| 1778043296 | 18.89° C | 71% | 1011.4 hPa | 0 mm | - | - | - |
| 1778042996 | 18.89° C | 71% | 1011.4 hPa | 0 mm | - | - | - |
| 1778042395 | 18.33° C | 74% | 1011.2 hPa | 0 mm | - | - | - |
| 1778042095 | 18.33° C | 75% | 1011.2 hPa | 0 mm | - | - | - |
| 1778039996 | 18.89° C | 72% | 1011.4 hPa | 0 mm | - | - | - |
| 1778039695 | 18.89° C | 72% | 1011.5 hPa | 0 mm | - | - | - |
| 1778039396 | 18.89° C | 72% | 1011.4 hPa | 0 mm | - | - | - |
| 1778039095 | 18.89° C | 72% | 1011.2 hPa | 0 mm | - | - | - |
| 1778038796 | 18.89° C | 72% | 1011.1 hPa | 0 mm | - | - | - |
| 1778038197 | 19.44° C | 71% | 1011.3 hPa | 0 mm | - | - | - |
| 1778037595 | 19.44° C | 69% | 1011.2 hPa | 0 mm | - | - | - |
| 1778037296 | 19.44° C | 69% | 1011.1 hPa | 0 mm | - | - | - |
| 1778036996 | 19.44° C | 70% | 1011.1 hPa | 0 mm | - | - | - |
| 1778036396 | 19.44° C | 70% | 1010.8 hPa | 0 mm | - | - | - |
| 1778035495 | 19.44° C | 71% | 1010.8 hPa | 0 mm | - | - | - |
| 1778035195 | 18.89° C | 71% | 1010.7 hPa | 0 mm | - | - | - |
| 1778034596 | 18.89° C | 71% | 1010.4 hPa | 0 mm | - | - | - |
| 1778033695 | 19.44° C | 72% | 1010.7 hPa | 0 mm | - | - | - |
| 1778033396 | 19.44° C | 71% | 1010.5 hPa | 0 mm | - | - | - |
| 1778032495 | 19.44° C | 69% | 1011 hPa | 0 mm | - | - | - |
| 1778031595 | 19.44° C | 69% | 1010.7 hPa | 0 mm | - | - | - |
* Rain latest hour (hover to see other rain measurements)
** Current wind speed in m/s (hover to see current wind gust speed)